CAPE
0 0 0 9 8 0 0 0 0 0 0 0 0 1 6 141 197 645 825 1082 946 1228 1076 1252 1799 1890 1881 2312 2365 2323 2201 2160 1988 1600 1472 1025 822 630 882 923 874 830 360 165 421 390 358 336 285
5 0 0 0 0 0 0 0 0 0 0 0 0 0 0 5 330 1031 780 1003 1041 1208 1162 995 1583 1831 1924 2041 2445 2292 2185 2135 1989 1725 1409 1374 1147 1068 806 1203 1291 1064 774 570 406 391 398 291 124
0 0 0 0 0 0 0 0 0 0 1 0 0 0 0 0 183 734 1175 1135 1117 1263 1332 1149 1476 1583 1880 1894 2240 2299 2123 2046 1975 1707 1414 1290 1262 994 1004 870 823 681 677 423 192 213 203 141 9
3 5 0 0 0 0 0 0 0 0 6 0 0 0 0 0 84 514 1069 1122 1122 1281 1194 1258 1449 1361 1741 1691 1945 2258 2085 1904 1749 1450 1245 1033 1092 1070 871 960 816 631 733 344 9 8 8 5 2
1 9 5 0 0 0 0 0 0 0 4 9 0 0 0 0 1079 1172 1219 1224 1173 1248 1210 1232 1562 1572 1809 1786 1674 2016 2019 1783 1600 1372 1193 1144 1060 1018 1038 982 781 695 543 173 4 1 0 0 0
15 0 0 0 0 0 0 0 0 0 1 13 0 3 0 3 944 1336 1349 1302 1182 1184 1408 1284 1202 1335 1645 1786 1604 2014 1817 1587 1365 1182 1074 1029 800 921 1065 873 791 617 261 1 0 0 0 0 0
4 9 0 0 0 0 0 0 0 0 0 1 12 2 0 6 626 1459 1104 1438 1351 1293 1223 1253 1095 934 1493 1581 1673 1768 1620 1334 956 948 835 560 542 643 919 721 666 669 319 53 0 0 0 0 0
13 10 0 0 0 0 0 0 0 0 0 0 24 21 17 2 219 1265 1264 1502 1164 1336 1046 1186 963 640 810 1472 1232 1226 1128 826 640 512 171 39 87 281 633 309 453 469 305 118 1 0 0 0 0
6 19 12 1 0 0 0 0 0 0 0 0 5 19 61 129 77 550 1052 1332 1075 1150 973 1010 740 263 435 1121 1067 754 686 439 169 2 0 7 7 41 186 21 174 295 299 202 80 20 0 0 0
17 11 1 0 0 0 0 0 0 7 16 3 1 3 69 73 58 301 799 875 1178 1166 878 857 556 78 292 916 1055 931 760 425 50 1 0 1 1 91 264 28 66 180 202 202 123 28 0 0 0
17 21 6 6 4 5 7 3 3 10 20 19 38 0 35 81 135 129 771 908 219 623 837 684 535 31 185 733 1017 814 687 218 23 0 5 0 1 123 204 77 10 9 5 39 22 0 0 2 0
18 22 14 8 7 13 23 22 5 4 3 0 27 31 29 80 134 52 28 305 616 104 371 248 254 22 42 484 749 597 543 146 4 5 0 0 7 210 129 91 24 3 0 0 0 0 0 0 0
13 6 8 5 4 7 8 9 0 3 2 14 31 29 59 69 30 74 0 0 4 171 71 213 36 72 11 260 568 568 202 53 140 113 0 6 18 47 72 70 94 34 36 0 0 0 0 0 0
14 17 12 5 16 18 22 16 17 10 0 0 10 29 8 28 0 17 0 0 0 42 257 20 183 317 25 14 358 572 243 107 32 13 11 15 18 30 83 79 182 99 53 2 0 0 0 0 0
9 11 9 3 3 2 14 37 7 0 4 2 11 15 4 56 18 38 1 0 0 3 406 137 251 126 38 7 9 26 146 34 8 9 19 15 19 67 149 136 121 72 26 0 0 0 0 0 0
25 27 23 0 7 0 28 15 0 0 10 4 0 52 47 14 36 15 20 0 3 42 197 272 193 177 69 13 20 17 18 17 8 5 22 32 19 55 59 74 44 12 0 0 0 0 0 18 55
18 32 9 7 1 20 64 104 17 0 20 0 0 0 8 11 24 0 40 0 24 0 42 256 300 189 334 302 113 16 3 10 5 4 13 15 12 12 18 8 3 0 0 0 0 0 8 98 86
36 42 29 31 27 73 80 45 48 51 54 4 0 1 7 15 0 1 9 30 40 59 14 54 341 334 465 426 207 100 3 1 7 7 3 6 3 0 1 0 0 0 1 35 59 66 102 111 131
40 35 29 9 11 23 1 1 46 83 138 88 57 135 53 79 0 1 3 81 47 83 7 110 443 395 490 307 292 290 135 10 0 0 0 0 0 0 0 0 0 18 66 72 69 112 142 172 124
6 13 1 3 11 11 11 11 37 61 155 168 134 89 79 28 1 4 0 37 1 48 31 15 423 511 410 261 315 405 692 512 291 69 0 0 0 0 0 36 74 108 144 108 201 273 317 349 314
5 14 5 2 0 16 14 54 7 30 90 108 94 56 44 13 12 1 0 0 21 0 80 43 85 424 379 340 434 458 452 551 506 456 447 257 178 185 167 190 152 249 256 334 418 357 427 383 398
30 2 14 18 21 35 24 83 24 28 14 75 61 18 28 7 7 0 0 0 28 0 0 167 131 248 429 487 325 334 319 339 334 330 246 206 210 346 344 355 330 368 376 410 376 420 624 531 190
4 1 23 51 28 30 33 17 37 17 9 1 24 55 57 40 0 0 0 0 162 31 38 114 141 209 386 331 389 512 401 316 247 423 272 207 170 166 210 155 131 171 330 450 415 222 69 41 130
15 23 16 5 17 38 38 19 16 19 7 16 44 56 22 17 7 0 0 0 238 111 96 59 55 86 353 306 272 359 574 572 334 409 328 205 154 126 100 129 154 201 253 176 44 16 84 132 213
9 15 43 41 38 68 4 6 34 4 1 18 4 0 19 9 6 0 0 123 231 200 46 4 14 51 50 207 278 151 124 189 610 507 477 255 155 140 134 95 130 162 143 107 45 70 142 240 301
6 15 28 20 80 38 1 26 10 3 1 7 0 1 27 2 0 0 1 214 357 116 62 53 31 52 6 43 75 44 26 39 46 70 273 288 245 273 161 72 127 46 55 75 83 92 183 175 168
2 23 11 9 2 5 26 20 5 3 25 1 0 2 10 0 0 0 0 195 208 111 47 81 122 54 27 18 7 45 2 24 25 25 76 45 91 192 180 139 123 108 84 63 76 130 87 128 223
17 7 10 24 19 26 24 11 6 5 20 11 6 12 8 1 0 0 0 327 318 213 150 200 150 44 25 36 22 37 6 47 45 19 16 41 55 81 150 140 131 139 83 99 172 42 24 4 0
20 10 1 0 0 24 23 18 11 5 6 28 9 7 3 1 0 0 0 288 232 160 135 159 164 67 14 49 39 32 26 9 2 0 10 12 14 44 71 105 55 24 0 2 10 0 0 0 0
1 1 1 63 3 10 5 14 2 7 8 16 6 3 1 2 0 0 0 31 46 8 4 1 9 43 40 45 25 44 6 1 2 3 14 1 13 62 46 5 0 0 0 0 0 0 0 0 0
CIN
-0 -0 -0 -0 -0 -0 -0 -0 -0 -0 -0 -0 -0 -0 -9 -1 -1 -19 -106 -69 -81 -121 -201 -133 -11 -0 -0 -0 -0 -0 -0 -0 -0 -0 -0 -0 -0 -0 -0 -0 -0 -0 -37 -102 -43 -52 -62 -61 -68
-0 -0 -0 -0 -0 -0 -0 -0 -0 -0 -0 -0 -0 -0 -0 -33 -17 -72 -27 -64 -27 -53 -149 -170 -42 -0 -0 -0 -0 -0 -0 -0 -0 -0 -0 -0 -0 -0 -0 -0 -0 -0 -0 -20 -47 -55 -49 -70 -129
-0 -0 -0 -0 -0 -0 -0 -0 -0 -0 -5 -0 -0 -0 -0 -0 -8 -13 -54 -58 -18 -19 -79 -104 -52 -9 -0 -0 -0 -0 -0 -0 -0 -0 -0 -0 -0 -0 -0 -0 -0 -1 -1 -36 -106 -113 -103 -132 -0
-0 -0 -0 -0 -0 -0 -0 -0 -0 -0 -1 -0 -0 -0 -0 -0 -4 -11 -121 -56 -9 -26 -35 -79 -23 -12 -0 -0 -0 -0 -0 -0 -0 -0 -0 -0 -1 -0 -0 -1 -0 -3 -1 -43 -6 -0 -0 -0 -0
-0 -0 -0 -0 -0 -0 -0 -0 -0 -0 -0 -0 -0 -0 -0 -0 -8 -5 -69 -72 -4 -16 -8 -18 -2 -1 -0 -0 -0 -0 -0 -0 -0 -0 -0 -0 -2 -0 -0 -0 -0 -0 -6 -107 -0 -0 -0 -0 -0
-0 -0 -0 -0 -0 -0 -0 -0 -0 -0 -0 -0 -0 -0 -0 -0 -7 -28 -36 -64 -6 -3 -5 -0 -4 -2 -0 -0 -0 -0 -0 -0 -0 -0 -0 -1 -1 -0 -0 -0 -0 -0 -57 -0 -0 -0 -0 -0 -0
-0 -0 -0 -0 -0 -0 -0 -0 -0 -0 -0 -0 -1 -0 -0 -0 -1 -5 -20 -83 -38 -9 -12 -1 -0 -1 -2 -0 -0 -1 -0 -1 -1 -1 -1 -16 -8 -2 -0 -0 -0 -0 -32 -136 -0 -0 -0 -0 -0
-0 -0 -0 -0 -0 -0 -0 -0 -0 -0 -0 -0 -0 -0 -0 -4 -33 -1 -0 -40 -84 -20 -18 -3 -0 -0 -0 -0 -3 -2 -2 -6 -8 -15 -102 -215 -148 -49 -1 -42 -12 -7 -32 -91 -2 -0 -0 -0 -0
-0 -0 -0 -0 -0 -0 -0 -0 -0 -0 -0 -0 -0 -5 -2 -27 -57 -13 -1 -0 -75 -27 -45 -2 -1 -15 -0 -0 -3 -10 -10 -14 -77 -68 -0 -15 -0 -146 -82 -9 -102 -50 -39 -70 -16 -57 -0 -0 -0
-0 -0 -0 -0 -0 -0 -0 -0 -0 -1 -1 -0 -1 -15 -0 -11 -19 -24 -0 -0 -16 -12 -34 -7 -1 -46 -0 -0 -0 -0 -0 -3 -115 -34 -1 -0 -0 -106 -40 -20 -10 -94 -88 -72 -2 -57 -0 -0 -0
-0 -0 -0 -0 -0 -0 -0 -0 -1 -0 -1 -7 -1 -0 -22 -14 -2 -67 -0 -0 -75 -74 -33 -4 -0 -48 -0 -0 -0 -0 -0 -15 -129 -0 -0 -0 -0 -122 -71 -22 -3 -1 -7 -34 -52 -0 -0 -0 -0
-0 -0 -0 -0 -0 -0 -1 -0 -0 -0 -2 -0 -1 -2 -3 -16 -0 -56 -170 -11 -1 -39 -31 -8 -1 -71 -3 -0 -0 -0 -0 -36 -3 -16 -0 -0 -0 -40 -93 -11 -6 -0 -0 -0 -0 -0 -0 -0 -0
-0 -0 -0 -0 -1 -1 -0 -0 -0 -0 -0 -1 -3 -15 -2 -9 -27 -19 -0 -0 -0 -32 -79 -33 -10 -11 -15 -8 -0 -0 -10 -27 -29 -25 -0 -0 -0 -0 -21 -26 -22 -38 -24 -0 -0 -0 -0 -0 -0
-0 -0 -0 -0 -1 -0 -0 -0 -0 -0 -0 -0 -1 -1 -19 -15 -0 -16 -2 -0 -0 -5 -3 -119 -1 -2 -10 -0 -0 -0 -11 -26 -0 -0 -2 -11 -2 -0 -17 -25 -8 -8 -22 -0 -0 -0 -0 -0 -0
-0 -0 -0 -0 -0 -0 -0 -0 -0 -0 -0 -0 -0 -0 -1 -12 -5 -0 -13 -1 -0 -1 -7 -59 -9 -7 -10 -0 -1 -1 -5 -28 -0 -0 -0 -8 -0 -17 -23 -4 -5 -23 -51 -0 -0 -0 -0 -0 -0
-0 -0 -0 -0 -0 -0 -0 -1 -0 -0 -0 -0 -0 -1 -0 -0 -14 -18 -17 -0 -60 -32 -0 -30 -0 -5 -29 -0 -0 -0 -0 -0 -0 -0 -101 -9 -0 -19 -27 -23 -43 -57 -0 -0 -0 -0 -0 -64 -25
-0 -0 -0 -0 -0 -0 -2 -0 -55 -0 -1 -0 -0 -0 -0 -0 -26 -0 -8 -0 -36 -0 -3 -3 -0 -5 -9 -1 -12 -0 -0 -0 -0 -0 -0 -0 -0 -0 -30 -11 -0 -0 -0 -0 -0 -0 -43 -16 -29
-0 -0 -0 -1 -0 -2 -6 -4 -7 -8 -14 -11 -0 -0 -0 -4 -1 -3 -17 -49 -68 -27 -0 -14 -4 -4 -1 -2 -9 -12 -0 -0 -0 -0 -0 -0 -0 -0 -0 -0 -0 -0 -5 -71 -42 -36 -25 -24 -23
-0 -0 -0 -0 -0 -0 -0 -1 -5 -0 -0 -0 -8 -0 -0 -0 -0 -1 -25 -57 -64 -39 -93 -0 -9 -3 -3 -1 -0 -1 -3 -0 -0 -0 -0 -0 -0 -0 -0 -0 -0 -86 -51 -38 -48 -36 -32 -22 -37
-0 -0 -0 -0 -0 -1 -24 -18 -3 -1 -0 -0 -0 -0 -0 -2 -0 -0 -0 -63 -71 -7 -87 -0 -2 -1 -0 -11 -0 -1 -0 -0 -9 -50 -1 -0 -0 -0 -0 -53 -55 -49 -23 -40 -22 -11 -2 -9 -5
-0 -0 -0 -0 -0 -12 -7 -29 -0 -0 -0 -0 -0 -0 -3 -40 -0 -0 -0 -39 -76 -0 -25 -48 -13 -2 -2 -4 -8 -3 -4 -1 -3 -0 -0 -20 -24 -15 -19 -21 -39 -14 -10 -4 -2 -3 -4 -5 -1
-0 -0 -0 -0 -0 -0 -3 -0 -0 -2 -1 -0 -2 -25 -34 -1 -76 -0 -0 -0 -63 -0 -0 -1 -7 -1 -6 -1 -1 -5 -1 -0 -9 -17 -25 -27 -13 -3 -3 -2 -10 -6 -16 -8 -2 -6 -1 -4 -38
-0 -0 -0 -0 -0 -1 -0 -0 -9 -14 -12 -4 -46 -15 -5 -9 -0 -0 -0 -0 -7 -43 -82 -1 -1 -1 -4 -2 -2 -1 -5 -22 -39 -13 -32 -23 -31 -36 -39 -59 -78 -57 -5 -0 -1 -16 -95 -101 -8
-0 -0 -0 -0 -0 -0 -4 -0 -0 -0 -0 -34 -7 -3 -25 -96 -0 -0 -0 -0 -1 -41 -74 -6 -6 -0 -4 -5 -10 -9 -6 -0 -8 -2 -7 -23 -30 -60 -67 -55 -62 -43 -8 -32 -83 -122 -34 -12 -1
-0 -0 -2 -2 -0 -0 -0 -0 -0 -0 -0 -16 -7 -10 -0 -1 -0 -0 -0 -30 -0 -7 -52 -39 -5 -22 -10 -1 -3 -34 -52 -55 -1 -16 -3 -6 -30 -67 -72 -89 -60 -41 -47 -47 -91 -62 -38 -2 -0
-0 -0 -0 -0 -0 -0 -5 -0 -0 -0 -0 -2 -0 -0 -0 -4 -0 -0 -10 -15 -13 -35 -25 -31 -0 -0 -21 -39 -29 -89 -98 -69 -38 -101 -17 -12 -10 -2 -14 -35 -43 -88 -57 -67 -44 -66 -15 -3 -1
-0 -0 -0 -0 -0 -0 -0 -0 -0 -0 -0 -0 -0 -0 -1 -0 -0 -0 -0 -8 -37 -46 -49 -17 -1 -1 -5 -33 -60 -14 -111 -123 -138 -55 -44 -83 -32 -1 -0 -4 -33 -27 -15 -23 -34 -4 -21 -13 -2
-0 -0 -0 -5 -0 -0 -0 -0 -0 -0 -0 -0 -0 -0 -4 -2 -0 -0 -0 -0 -4 -18 -36 -0 -0 -44 -79 -17 -36 -10 -25 -24 -17 -45 -55 -21 -70 -33 -3 -14 -46 -14 -20 -26 -1 -40 -67 -19 -1
-0 -0 -0 -0 -0 -0 -1 -0 -0 -0 -0 -0 -0 -4 -0 -0 -0 -0 -0 -0 -8 -9 -8 -2 -0 -0 -9 -0 -18 -7 -46 -73 -20 -15 -43 -25 -59 -33 -12 -0 -18 -60 -96 -32 -21 -0 -0 -0 -0
-0 -3 -0 -0 -1 -1 -0 -0 -0 -0 -0 -0 -0 -5 -0 -0 -0 -0 -0 -60 -22 -38 -30 -4 -36 -16 -6 -14 -27 -26 -68 -0 -1 -4 -16 -15 -47 -43 -88 -51 -3 -0 -0 -0 -0 -0 -0 -0 -0
Wind_Speed
9 9 5 5 9 10 20 26 21 19 19 18 21 17 18 15 14 2 0 7 12 20 22 21 18 16 16 15 17 19 18 19 19 19 19 20 20 19 18 17 18 16 16 17 15 17 18 19 18
7 5 5 6 11 17 18 21 25 23 14 7 16 19 17 14 6 8 4 5 13 17 18 21 20 18 16 15 16 19 19 20 20 19 20 19 18 18 18 16 17 17 16 15 17 17 17 17 16
8 6 7 6 15 22 17 18 17 20 12 16 11 17 20 16 10 8 4 9 16 17 17 17 19 18 17 16 15 17 19 19 20 20 19 19 18 18 15 15 18 16 17 16 15 15 15 15 15
5 5 6 13 22 19 23 22 25 15 16 20 15 16 18 18 12 7 11 11 14 20 16 19 18 19 17 16 16 17 18 19 19 20 20 19 18 17 14 15 17 17 16 16 15 14 14 14 13
5 7 13 18 26 24 21 16 16 19 15 18 23 20 20 15 8 12 15 14 16 17 13 19 19 19 18 17 17 17 18 19 19 19 19 18 19 17 16 17 16 16 15 16 15 14 14 14 13
8 6 14 18 24 23 20 19 22 23 21 22 26 27 21 14 12 11 16 17 14 12 14 18 16 17 17 18 18 16 19 19 19 20 19 19 18 16 18 18 16 16 15 16 15 14 14 15 14
14 13 19 23 23 23 19 16 18 23 24 24 23 21 19 20 11 14 13 15 12 11 14 16 17 15 13 17 18 17 18 18 20 20 19 18 16 16 19 17 15 16 15 14 14 14 14 14 13
11 12 25 22 20 26 21 22 19 22 27 25 23 24 17 20 13 16 14 17 20 13 14 15 16 17 16 15 13 16 18 19 19 17 16 14 11 13 17 15 13 15 15 14 13 13 14 12 12
9 12 16 21 23 22 19 22 19 21 21 30 24 20 17 8 12 11 14 14 14 13 14 16 15 18 17 17 14 15 17 17 16 16 17 13 12 14 17 14 11 14 14 13 13 12 13 10 8
13 14 22 20 19 19 20 21 23 22 19 26 26 16 20 8 11 16 18 17 14 14 14 15 16 19 18 14 17 16 15 13 11 13 15 12 15 14 10 15 12 12 11 12 12 12 12 12 7
13 18 20 20 19 19 18 20 20 22 22 23 22 25 24 24 9 11 17 18 18 20 14 18 21 21 20 15 11 8 9 9 9 14 15 13 12 11 7 7 9 9 10 8 9 8 8 8 6
20 22 21 21 20 19 20 20 24 24 25 22 25 23 23 23 18 5 5 12 17 17 15 18 19 20 20 13 11 11 10 8 9 10 16 11 9 11 9 7 7 9 8 10 9 7 5 5 5
18 20 22 22 20 20 20 24 26 27 26 24 24 25 21 15 20 7 3 7 15 20 19 16 9 18 18 17 13 12 8 9 12 12 14 10 10 11 9 8 6 8 8 9 8 6 5 5 5
16 19 21 21 19 20 22 24 24 25 27 28 25 25 24 21 14 20 5 11 2 13 21 21 21 18 19 15 18 14 11 10 10 10 10 8 8 9 10 9 9 8 6 7 6 6 5 4 4
14 21 21 22 18 24 23 28 28 33 25 27 28 24 24 21 18 26 11 9 3 9 15 16 13 16 18 17 14 10 11 12 10 11 17 10 12 10 12 10 8 7 7 8 6 5 5 4 2
17 16 19 22 21 23 22 20 27 25 24 27 29 26 20 22 18 21 17 11 5 11 18 22 13 13 18 14 12 9 11 10 10 10 13 17 13 11 8 6 8 8 6 6 5 5 4 4 4
14 15 21 23 21 19 16 17 23 23 20 27 25 27 22 18 15 13 7 12 6 5 13 24 20 16 18 13 10 12 14 10 9 9 9 14 14 12 8 7 8 9 6 5 4 4 4 3 3
15 14 19 20 20 12 20 19 23 21 20 21 24 22 19 19 10 10 4 8 7 7 7 17 19 17 19 13 10 8 10 10 9 9 10 13 10 13 9 7 9 8 6 5 4 5 3 3 3
16 19 24 23 22 22 22 19 21 22 14 17 17 15 17 13 12 8 6 5 4 7 7 13 20 20 14 12 10 10 10 10 10 9 13 14 12 13 10 7 9 8 7 7 7 5 7 4 3
18 22 27 26 22 20 22 25 15 17 16 15 13 14 16 14 15 11 5 3 10 7 7 9 16 19 15 12 10 11 11 10 9 8 11 12 13 12 10 10 8 8 6 7 8 6 4 3 4
19 21 26 24 23 21 24 25 19 17 20 14 11 12 15 16 16 11 7 5 15 9 9 16 15 18 15 16 10 9 9 8 9 10 8 10 11 12 10 9 8 8 6 6 6 5 6 4 2
20 20 25 24 18 14 13 5 16 17 11 12 15 12 14 16 14 11 7 7 13 14 11 18 18 17 16 17 13 15 10 11 8 7 7 7 10 11 9 8 8 5 3 5 5 3 4 2 1
12 13 12 13 11 8 12 7 2 14 9 10 9 12 11 12 12 8 9 10 15 12 10 12 21 23 18 17 15 13 12 8 8 8 11 9 9 10 10 9 8 7 5 4 4 1 3 1 2
15 11 14 8 4 6 8 11 4 2 9 8 5 5 0 3 7 10 11 10 12 11 8 3 10 16 16 16 16 15 14 13 11 10 9 8 7 7 9 8 8 6 5 6 4 2 3 4 4
6 11 3 6 8 2 1 6 6 7 5 5 9 9 7 3 1 7 11 11 14 14 10 5 6 7 11 10 9 8 8 8 10 12 10 10 7 8 9 7 7 7 6 6 4 2 4 6 5
9 7 5 6 3 5 9 6 7 9 3 14 10 7 7 12 10 5 8 7 17 16 14 8 7 5 7 10 8 8 8 6 5 7 7 8 7 7 9 8 8 7 6 5 6 5 4 4 4
8 6 9 7 2 2 3 1 5 16 16 15 11 8 13 14 13 9 6 7 17 16 18 16 13 12 13 10 8 6 6 8 7 6 4 6 6 5 9 7 9 9 9 9 7 5 6 6 5
5 9 3 1 7 5 5 7 7 14 15 13 14 14 14 15 14 12 3 11 14 14 15 13 12 10 10 11 12 8 9 10 13 10 8 6 8 9 8 7 7 7 6 6 8 6 6 5 3
5 4 5 4 3 4 3 6 9 13 11 12 12 12 14 14 13 10 7 10 13 11 12 10 8 6 12 11 11 10 8 8 7 9 11 9 8 10 10 9 9 8 8 5 5 6 5 5 5
7 9 4 4 5 6 6 6 10 15 15 14 15 15 13 12 13 12 10 11 13 11 10 8 5 6 7 8 9 9 8 8 9 9 9 8 8 7 9 10 10 9 9 8 7 7 6 7 7
Wind_Direction
257 243 276 253 233 235 239 235 246 253 252 234 250 252 268 238 245 275 178 163 180 158 157 162 158 159 155 153 149 151 151 148 147 147 147 144 142 141 140 137 130 124 118 125 114 102 100 104 98
269 249 247 262 240 237 237 238 241 240 228 230 262 249 250 240 154 110 78 133 159 163 158 166 161 158 158 157 150 152 154 151 147 148 149 146 145 141 144 145 136 128 123 111 103 100 95 97 98
263 256 246 225 236 238 249 246 229 249 206 255 248 251 239 228 228 132 88 181 152 145 160 160 163 162 161 159 156 154 156 154 151 150 151 151 146 138 139 130 129 124 114 107 106 103 102 102 105
224 204 255 251 241 239 248 276 284 230 199 232 235 259 229 246 247 153 151 169 175 140 162 147 162 164 162 162 162 161 160 160 153 151 152 151 141 138 140 122 117 115 116 118 115 114 113 108 104
240 254 243 241 245 257 272 279 276 263 247 232 246 239 258 221 91 135 153 161 170 152 150 162 165 161 161 164 168 169 163 162 157 153 154 148 136 140 130 120 117 114 116 116 119 119 116 110 106
220 244 241 241 252 253 253 259 262 270 245 226 241 245 240 255 160 163 153 150 157 161 151 166 164 162 164 166 169 173 166 159 156 153 151 141 140 136 127 122 123 125 123 124 124 124 118 114 111
240 238 248 259 264 265 264 259 248 261 262 246 242 240 261 237 186 181 191 145 154 158 174 167 174 169 163 168 168 167 158 154 155 151 142 135 140 134 128 123 128 132 126 124 127 126 122 120 117
246 250 262 260 263 263 267 264 259 250 262 266 243 243 233 254 330 181 200 163 147 180 186 177 174 178 173 170 159 156 150 151 150 138 128 121 128 130 129 124 132 131 125 128 129 130 126 121 117
245 249 244 253 261 273 274 268 260 261 255 265 256 256 263 32 343 274 198 193 157 177 174 183 174 177 177 172 163 152 149 141 132 125 112 135 160 156 146 127 121 124 130 131 131 128 122 113 110
227 237 248 262 272 276 276 269 266 265 258 244 257 269 258 296 307 300 216 193 168 165 185 192 181 177 175 160 166 164 152 148 143 140 146 170 156 162 149 127 118 113 118 130 132 136 146 170 144
237 251 270 272 271 275 279 280 277 266 251 267 255 244 249 266 269 328 228 203 198 173 199 204 182 175 176 162 170 162 159 153 150 150 168 169 164 146 138 137 140 139 152 150 153 160 190 191 157
257 259 268 278 281 284 278 275 270 266 263 259 271 266 252 229 244 297 321 266 201 194 208 214 182 170 180 162 172 162 162 156 147 164 177 156 168 150 145 148 160 160 180 157 162 187 163 173 162
261 266 270 272 275 270 269 263 260 260 263 255 247 269 280 271 276 203 258 256 318 195 201 183 204 171 173 168 174 160 157 157 163 177 181 165 157 166 142 155 171 185 187 169 180 180 166 179 168
271 279 287 281 272 277 267 264 261 255 247 258 255 250 259 261 246 279 291 306 290 278 188 192 214 180 167 177 183 165 161 174 169 160 146 138 189 158 154 171 182 196 173 168 173 175 177 184 184
275 277 274 266 263 257 254 257 252 251 253 241 250 246 252 249 254 240 258 319 254 299 192 176 180 177 167 172 177 178 167 176 162 168 153 169 189 167 167 179 172 167 183 172 178 172 177 184 197
275 277 272 273 267 258 227 253 254 246 238 244 238 241 248 250 247 238 244 312 280 307 195 153 175 207 158 174 168 170 167 168 163 169 157 177 176 163 164 163 169 168 169 174 175 177 191 194 192
257 259 275 284 280 257 226 250 261 251 248 232 235 236 242 258 248 268 250 303 252 228 241 161 168 196 158 172 174 164 171 164 162 163 163 172 165 161 169 167 169 165 169 175 176 183 183 190 190
286 290 289 288 289 305 297 287 267 263 234 232 230 230 234 250 247 236 300 284 238 201 268 189 162 186 156 161 157 172 163 164 160 163 160 172 164 167 171 165 158 166 160 171 176 185 210 195 199
262 266 273 276 278 275 268 267 256 249 251 243 231 231 238 227 234 208 200 258 234 209 212 211 171 180 154 157 168 172 170 165 159 164 163 171 167 165 174 161 159 170 170 176 175 181 189 196 217
272 274 270 279 273 264 272 267 245 240 224 227 229 228 224 228 232 221 183 203 190 166 224 237 188 179 162 158 173 176 169 163 162 160 164 169 166 164 169 165 159 176 171 174 190 187 195 228 201
266 262 270 270 287 278 266 252 246 232 226 218 243 246 232 224 219 228 210 173 186 160 171 253 234 187 163 165 163 168 158 159 160 167 170 163 166 166 170 159 170 174 180 182 189 194 213 213 162
272 263 254 261 264 259 205 250 206 218 215 241 247 234 234 213 223 235 223 175 179 194 177 214 224 212 165 165 163 166 163 163 165 158 157 164 172 165 162 160 160 158 130 176 192 216 239 268 120
252 297 271 260 260 261 221 276 149 190 216 245 237 249 235 223 223 234 233 189 179 182 179 199 205 216 157 169 164 167 167 160 158 163 157 167 168 164 157 154 154 156 160 180 185 131 46 69 289
270 264 254 231 262 250 187 207 72 287 227 224 200 210 6 339 261 232 220 194 166 162 140 108 229 220 175 169 171 171 170 163 163 160 158 157 153 148 155 157 145 138 143 147 138 137 313 267 252
294 277 243 173 197 102 201 108 47 14 327 89 80 49 16 39 265 192 204 182 155 173 160 210 39 117 126 121 149 143 133 131 159 155 150 148 153 144 149 147 152 154 137 153 118 185 236 247 234
300 290 328 350 30 87 27 47 24 27 112 93 66 43 25 27 8 350 180 187 153 143 142 159 235 195 104 128 147 150 153 138 123 85 158 140 146 145 152 160 150 160 159 131 159 219 225 224 236
319 320 335 308 134 81 10 161 267 31 65 54 28 21 40 26 10 359 144 171 151 154 155 177 191 195 152 154 152 144 131 113 104 139 122 132 123 148 153 157 156 167 175 182 188 201 195 209 197
291 321 322 266 360 63 21 54 2 15 49 61 16 42 34 20 13 13 19 155 145 152 156 160 178 185 158 155 150 177 159 186 168 156 149 186 145 148 163 159 140 161 143 180 194 167 179 145 137
332 356 318 288 1 344 33 41 356 29 56 54 27 36 35 12 8 9 5 109 99 117 128 137 174 164 159 158 153 170 181 183 152 164 172 166 145 149 157 176 158 138 137 184 160 149 165 159 135
298 318 327 324 57 16 77 48 30 52 60 62 24 37 26 29 6 28 25 78 83 85 85 79 82 105 141 157 152 158 160 169 166 169 173 157 169 155 153 154 151 152 154 171 171 163 172 171 177